[Iaude] MPEC G159: 2024 GS3 [a=2.02,e=0.53,i=4.7,H=25.2]

mpec at cfa.harvard.edu mpec at cfa.harvard.edu
Thu Apr 11 15:47:55 EDT 2024


M.P.E.C. 2024-G159                               Issued 2024 April 11, 19:46 UT

     The Minor Planet Electronic Circulars contain information on unusual
         minor planets, routine data on comets and natural satellites,
         and occasional editorial announcements.  They are published
    on behalf of Division F of the International Astronomical Union by the
          Minor Planet Center, Smithsonian Astrophysical Observatory,
                          Cambridge, MA 02138, U.S.A.
			  
             Prepared using the Tamkin Foundation Computer Network

                              MPC at CFA.HARVARD.EDU
            URL https://www.minorplanetcenter.net/    ISSN 1523-6714

                                    2024 GS3                                    


Observations:
     K24G03S*1C2024 04 10.25796111 10 48.648-03 12 00.79         18.26GVEG159703
     K24G03S 1C2024 04 10.26021211 10 54.019-03 12 01.98         18.25GVEG159703
     K24G03S 1C2024 04 10.26247011 10 59.437-03 12 04.46         18.06GVEG159703
     K24G03S 1C2024 04 10.26473311 11 04.898-03 12 07.13               VEG159703
     K24G03S mC2024 04 10.28321411 11 49.056-03 12 18.68         18.77GVEG159I52
     K24G03S mC2024 04 10.28338411 11 49.448-03 12 18.90         18.59GVEG159I52
     K24G03S mC2024 04 10.28356211 11 49.862-03 12 19.04         18.50GVEG159I52
     K24G03S mC2024 04 10.28373211 11 50.273-03 12 19.12         19.00GVEG159I52
     K24G03S  C2024 04 10.28980811 12 03.976-03 12 29.34         18.2 GVEG159H01
     K24G03S  C2024 04 10.29405611 12 14.133-03 12 32.46         18.4 GVEG159H01
     K24G03S  C2024 04 10.31283611 12 59.004-03 12 45.31         19.0 GVEG159H01
     K24G03S  C2024 04 10.31710811 13 09.201-03 12 48.14         18.3 GVEG159H01
     K24G03S mC2024 04 10.35564611 14 41.651-03 13 08.08         19.05GVEG159I52
     K24G03S mC2024 04 10.35581611 14 42.068-03 13 07.68         18.87GVEG159I52
     K24G03S mC2024 04 10.35598611 14 42.479-03 13 07.86         18.52GVEG159I52
     K24G03S mC2024 04 10.35615611 14 42.882-03 13 07.90         18.69GVEG159I52
     K24G03S KC2024 04 10.48390 11 20 06.02 -03 09 22.7          18.7 VqEG159E23
     K24G03S KC2024 04 10.49501 11 20 31.47 -03 09 30.5          18.6 VqEG159E23
     K24G03S KB2024 04 10.49660 11 20 39.13 -03 14 58.6          18.8 GXEG159Q06
     K24G03S KB2024 04 10.50021 11 20 47.33 -03 15 01.1          18.5 GXEG159Q06
     K24G03S KB2024 04 10.50387 11 20 55.74 -03 15 03.5          18.7 GXEG159Q06
     K24G03S KC2024 04 10.50612 11 20 56.86 -03 09 38.3          18.8 VqEG159E23
     K24G03S KC2024 04 10.54795311 22 36.27 -03 15 30.3          18.6 GVEG159900
     K24G03S KC2024 04 10.55788711 22 58.74 -03 15 36.2          18.4 GVEG159900
     K24G03S KC2024 04 10.56782111 23 21.24 -03 15 43.2          18.9 GVEG159900
     K24G03S KC2024 04 10.82395511 33 20.36 -03 18 32.6          18.8 GXEG159958
     K24G03S KB2024 04 10.82968 11 33 31.33 -03 18 38.0          18.0 GXEG159K19
     K24G03S KC2024 04 10.83047311 33 34.45 -03 18 35.9          18.4 GXEG159958
     K24G03S KB2024 04 10.83221 11 33 36.91 -03 18 38.7          18.1 GXEG159K19
     K24G03S KC2024 04 10.83694311 33 48.53 -03 18 40.5          18.4 GXEG159958
     K24G03S KB2024 04 10.87151611 35 02.63 -03 19 00.2          19.3 GXEG159I93
     K24G03S KB2024 04 10.87161 11 35 00.41 -03 19 26.3          19.0 GVEG159L65
     K24G03S KB2024 04 10.87306911 35 05.95 -03 19 01.2          18.9 GXEG159I93
     K24G03S KB2024 04 10.87452811 35 09.10 -03 19 02.0          18.3 GXEG159I93
     K24G03S KB2024 04 10.88289 11 35 24.57 -03 19 32.2          19.1 GVEG159L65
     K24G03S 0B2024 04 10.88295 11 35 23.304-03 14 05.17         19.3 VZEG159M49
     K24G03S 0B2024 04 10.88418 11 35 25.870-03 14 05.93         18.7 VZEG159M49
     K24G03S KC2024 04 10.88515911 35 25.81 -03 19 22.4          18.5 GXEG159L18
     K24G03S 0B2024 04 10.88539 11 35 28.450-03 14 06.47         19.9 VZEG159M49
     K24G03S KC2024 04 10.89134611 35 39.00 -03 19 24.8          18.7 GXEG159L18
     K24G03S KB2024 04 10.89212611 35 44.652-03 19 29.80         18.9 GXEG159B72
     K24G03S KB2024 04 10.89417 11 35 48.77 -03 19 37.5          19.3 GVEG159L65
     K24G03S KB2024 04 10.89583811 35 52.582-03 19 31.57         18.7 GXEG159B72
     K24G03S KC2024 04 10.89734211 35 51.72 -03 19 26.9          18.6 GXEG159L18
     K24G03S KB2024 04 10.89955011 36 00.497-03 19 33.42         19.1 GXEG159B72
     K24G03S KB2024 04 10.90263711 36 06.540-03 19 32.23         18.4 GXEG159K74
     K24G03S KB2024 04 10.90791311 36 17.784-03 19 34.82         18.6 GXEG159K74
     K24G03S KB2024 04 10.91319111 36 29.023-03 19 37.45         18.4 GXEG159K74
     K24G03S KC2024 04 10.91889 11 36 37.11 -03 19 40.6          18.3 R EG159585
     K24G03S KC2024 04 10.91972 11 36 38.82 -03 19 40.6          18.5 R EG159585
     K24G03S KC2024 04 10.92103 11 36 41.61 -03 19 41.4          18.4 R EG159585
     K24G03S 1C2024 04 11.00205 11 39 36.52 -03 20 17.9          19.0 VXEG159033
     K24G03S 1C2024 04 11.00228 11 39 37.04 -03 20 18.1          19.6 VXEG159033
     K24G03S 1C2024 04 11.00250 11 39 37.50 -03 20 17.8          19.5 VXEG159033
     K24G03S 1C2024 04 11.00274 11 39 37.99 -03 20 17.7          19.5 VXEG159033
     K24G03S 1C2024 04 11.00318 11 39 38.89 -03 20 18.1          19.2 VXEG159033
     K24G03S KB2024 04 11.76812012 05 15.25 -03 23 59.7          19.0 GXEG159L76
     K24G03S KB2024 04 11.77525712 05 27.85 -03 24 02.1          18.5 GXEG159L76
     K24G03S KB2024 04 11.78239512 05 40.44 -03 24 03.4          18.8 GXEG159L76

Observer details:
033 Karl Schwarzschild Observatory, Tautenburg.  Observers S. Melnikov, C.
    Hogner, F. Ludwig, M. Hartmann, B. Stecklum.  Measurer B. Stecklum.
    1.34-m f/3 Schmidt + CCD.
585 Kyiv comet station.  Observers A. Baransky, A. Kasianchuk, M. Derkach.
    0.7-m f/4 reflector + CCD.
703 Catalina Sky Survey.  Observer J. K. Hogan.  Measurers T. Beuden, V. F.
    Carvajal, D. Fay, J. B. Fazekas, D. C. Fuls, A. R. Gibbs, A. D. Grauer, H.
    Groeller, J. K. Hogan, R. A. Kowalski, S. M. Larson, G. J. Leonard, D.
    Rankin, R. L. Seaman, F. C. Shelly, K. W. Wierzchos.  0.68-m Schmidt + 10K
    CCD.
900 Moriyama.  Observer Y. Ikari.  0.26-m f/7.0 reflector + CMO.
958 Observatoire de Dax.  Observers P. Dupouy, J. B. de Vanssay.  Measurer P.
    Dupouy.  0.43-m f/2.7 Reflector + CCD.
B72 Soerth Observatory.  Observer B. Koch.  0.36-m f/7.6 reflector + CMO.
E23 Arcadia.  Observer A. Hidas.  0.35-m f/1.9 reflector + CCD.
H01 Magdalena Ridge Observatory, Socorro.  Observers W. H. Ryan, E. V. Ryan.
    Measurer W. H. Ryan.  2.4-m f/8.9 Ritchey-Chretien + CCD.
I52 Steward Observatory, Mt. Lemmon Station.  Observer G. J. Leonard.
    Measurers T. Beuden, V. F. Carvajal, D. Fay, J. B. Fazekas, D. C. Fuls, A.
    R. Gibbs, A. D. Grauer, H. Groeller, J. K. Hogan, R. A. Kowalski, S. M.
    Larson, G. J. Leonard, D. Rankin, R. L. Seaman, F. C. Shelly, K. W.
    Wierzchos.  1.0-m prime focus + CCD.
I93 St Pardon de Conques.  Observer F. Losse.  0.40-m f/3.7 reflector + CCD.
K19 PASTIS Observatory, Banon.  Observer C. Demeautis.  0.28-m f/2.2 reflector
    + CMO.
K74 Muensterschwarzach Observatory, Schwarzach.  Observer C. Gerhard.  0.30-m
    f/3.75 reflector + CMO.
L18 QOS Observatory, Zalistsi.  Observer V. L. Pasatetskiy.  Measurer A. M.
    Kozhukhov.  0.50-m f/3.8 reflector + CCD.
L65 Bredenkamp Observatory, Bremen.  Observer H. Duin.  0.23-m f/6.3 reflector
    + CMO.
L76 Nomad Observatory, Kochevanchik.  Observer E. Romas.  0.25-m f/4 Newtonian
    + CMO.
M49 IAS Remote Observatory, Hakos.  Observers D. Husar, M. Junius.  Measurer
    D. Husar.  0.25-m f/4.5 reflector + CMO.
Q06 Tarui Observatory, Tarui.  Observer H. Watanabe.  0.35-m f/1.9 Schmidt-
    Cassegrain + CMO.

Orbital elements:
2024 GS3                                                 Earth MOID = 0.0126 AU
Epoch 2024 Mar. 31.0 TT = JDT 2460400.5                 MPC                     
M   7.64077              (2000.0)            P               Q                  
n   0.34403325     Peri.  316.33535     -0.93113876     -0.36333712             
a   2.0171387      Node   202.41585     +0.35295625     -0.87652696             
e   0.5341065      Incl.    4.67698     +0.09166513     -0.31573188             
P   2.86           H   25.24          G   0.15           U   7                  
Residuals in seconds of arc
240410 703  0.3-  0.4-    240410 Q06  0.3-  0.0     240410 B72  0.2-  0.1+
240410 703  0.5-  0.1+    240410 E23  0.3-  0.0     240410 L65  0.3+  0.0
240410 703  0.3-  0.7-    240410 900  0.0   0.1-    240410 B72  0.1-  0.1+
240410 703  0.4+  1.7-    240410 900  0.4-  0.1+    240410 L18  0.9-  0.3-
240410 I52  0.2+  0.1+    240410 900  0.3+  0.9-    240410 B72  0.2-  0.0
240410 I52  0.0   0.0     240410 958  0.2+  0.0     240410 K74  0.3-  0.1+
240410 I52  0.1-  0.0     240410 K19  1.3-  0.5-    240410 K74  0.1-  0.1-
240410 I52  0.0   0.1+    240410 958  0.7-  0.2+    240410 K74  0.1+  0.3-
240410 H01  0.1+  0.2+    240410 K19  0.4+  0.2+    240410 585  0.1+  0.5-
240410 H01  0.2+  0.0     240410 958  0.4+  0.9-    240410 585  0.7-  0.1-
240410 H01  0.3+  0.1+    240410 I93  0.0   0.4+    240410 585  0.8-  0.4-
240410 H01  0.2+  0.1+    240410 L65  0.4+  0.4+    240411 033  0.2-  0.1-
240410 I52  0.1-  0.3-    240410 I93  0.1-  0.1+    240411 033  0.3+  0.1-
240410 I52  0.1+  0.2+    240410 I93  0.4+  0.1+    240411 033  0.3+  0.2+
240410 I52  0.2+  0.1+    240410 L65  0.4-  0.1-    240411 033  0.0   0.4+
240410 I52  0.2+  0.2+    240410 M49  0.3+  0.0     240411 033  0.3-  0.2+
240410 E23  0.3-  0.5+    240410 M49  0.0   0.1-    240411 L76  0.3-  0.5+
240410 E23  0.3-  0.3+    240410 L18  0.7+  1.3-    240411 L76  0.1-  0.2-
240410 Q06  0.4+  0.1+    240410 M49  0.3+  0.1-    240411 L76  0.2+  0.0
240410 Q06  0.7-  0.0     240410 L18  0.3+  0.9-

Ephemeris:
2024 GS3                 a,e,i = 2.02, 0.53, 5                   q = 0.9398
Date    TT    R. A. (2000) Decl.     Delta      r    Elong.  Phase     V
2024 03 12    03 53 04.6 +02 04 54   0.1596  0.9407    66.2   104.9    25.0
...
2024 03 27    04 45 33.9 +01 30 58   0.07576 0.9687    65.4   110.5    23.8
...
2024 04 04    06 36 31.0 -00 04 45   0.03575 0.9982    85.9    92.0    21.3
...
2024 04 10    10 59 52.7 -03 05 32   0.02891 1.0260   146.1    33.0    19.0
2024 04 11    11 39 37.4 -03 16 35   0.03179 1.0310   154.9    24.4    19.0
2024 04 12    12 12 03.0 -03 21 30   0.03546 1.0362   161.8    17.6    19.0
...
2024 04 18    13 49 33.8 -03 16 51   0.06569 1.0692   172.4     7.2    20.0
...
2024 04 26    14 29 06.7 -03 17 42   0.1138  1.1182   169.2     9.7    21.4
...
2024 05 11    14 51 07.2 -04 00 21   0.2170  1.2211   165.2    12.2    23.1

A. U. Tomatic                (C) Copyright 2024 MPC           M.P.E.C. 2024-G159





More information about the Iaude mailing list